Location: Arbon
(43.0005°N, 0.7472°E)
Time: 14:49:14
(UTC+00:00)

Vanguard 1 - All Passes

Search period start: 26 November 2020 00:00
Search period end: 06 December 2020 00:00
Orbit: 650 x 3833 km, 34.2° (Epoch: 26 November)

Date Brightness Start Highest point End Pass type
(mag) Time Alt. Az. Time Alt. Az. Time Alt. Az.
26 Nov - 05:16:29 10° SW 05:22:35 36° SSE 05:32:46 10° E visible
26 Nov - 07:34:34 10° WSW 07:43:17 56° S 07:59:24 10° ESE daylight
26 Nov - 09:54:21 10° W 10:06:03 48° SSW 10:25:25 10° SE daylight
26 Nov - 12:16:52 10° W 12:29:44 27° SW 12:46:36 10° SSE daylight
27 Nov - 03:22:15 10° SSE 03:24:22 12° SE 03:26:48 10° ESE visible
27 Nov - 05:36:45 10° SW 05:43:08 42° SSE 05:54:12 10° E visible
27 Nov - 07:55:15 10° WSW 08:04:13 55° S 08:20:40 10° ESE daylight
27 Nov - 10:15:21 10° W 10:27:05 42° SSW 10:45:52 10° SE daylight
27 Nov - 12:39:15 10° WSW 12:50:39 21° SW 13:04:50 10° S daylight
28 Nov - 03:40:50 10° S 03:44:34 17° SE 03:49:31 10° ESE visible
28 Nov - 05:57:10 10° WSW 06:03:47 47° SSE 06:15:34 10° E visible
28 Nov - 08:16:00 10° W 08:25:09 53° S 08:41:48 10° ESE daylight
28 Nov - 10:36:30 10° W 10:48:07 36° SSW 11:05:55 10° SSE daylight
28 Nov - 13:02:54 10° WSW 13:11:32 15° SW 13:21:35 10° SSW daylight
29 Nov - 04:00:25 10° SSW 04:04:53 24° SSE 04:11:17 10° E visible
29 Nov - 06:17:43 10° WSW 06:24:31 50° S 06:36:53 10° ESE visible
29 Nov - 08:36:48 10° W 08:46:08 48° SSW 09:02:45 10° SE daylight
29 Nov - 10:57:55 10° W 11:09:08 30° SSW 11:25:30 10° SSE daylight
30 Nov - 04:20:25 10° SSW 04:25:18 30° SSE 04:32:46 10° E visible
30 Nov - 06:38:18 10° WSW 06:45:20 51° S 06:58:08 10° ESE daylight
30 Nov - 08:57:40 10° W 09:07:08 43° SSW 09:23:26 10° SE daylight
30 Nov - 11:19:45 10° WSW 11:30:08 23° SSW 11:44:24 10° S daylight
01 Dec - 04:40:41 10° SW 04:45:51 36° SSE 04:54:06 10° E visible
01 Dec - 06:58:58 10° WSW 07:06:11 50° S 07:19:18 10° ESE daylight
01 Dec - 09:18:40 10° W 09:28:08 37° SSW 09:43:49 10° SE daylight
01 Dec - 11:42:22 10° WSW 11:51:08 17° SW 12:02:17 10° S daylight
02 Dec - 02:44:58 10° S 02:47:29 14° SE 02:50:26 10° ESE visible
02 Dec - 05:01:06 10° SW 05:06:28 41° SSE 05:15:20 10° E visible
02 Dec - 07:19:41 10° WSW 07:27:04 46° S 07:40:20 10° ESE daylight
02 Dec - 09:39:51 10° W 09:49:09 31° SSW 10:03:46 10° SSE daylight
02 Dec - 12:07:11 10° SW 12:12:08 12° SW 12:17:44 10° SSW daylight
03 Dec - 03:04:23 10° SSW 03:07:52 19° SSE 03:12:18 10° ESE visible
03 Dec - 05:21:37 10° WSW 05:27:10 44° S 05:36:32 10° ESE visible
03 Dec - 07:40:29 10° W 07:47:59 42° S 08:01:10 10° SE daylight
03 Dec - 10:01:22 10° WSW 10:10:10 25° SSW 10:23:10 10° SSE daylight
04 Dec - 03:24:21 10° SSW 03:28:20 25° SSE 03:33:43 10° ESE visible
04 Dec - 05:42:13 10° WSW 05:47:55 44° S 05:57:38 10° ESE visible
04 Dec - 08:01:22 10° WSW 08:08:54 36° SSW 08:21:44 10° SE daylight
04 Dec - 10:23:25 10° WSW 10:31:12 19° SSW 10:41:46 10° S daylight
05 Dec - 03:44:36 10° SW 03:48:53 31° SSE 03:54:56 10° ESE visible
05 Dec - 06:02:53 10° WSW 06:08:42 43° S 06:18:40 10° ESE visible
05 Dec - 08:22:25 10° WSW 08:29:53 31° SSW 08:41:58 10° SE daylight
05 Dec - 10:46:48 10° WSW 10:52:15 13° SSW 10:58:48 10° S daylight
